Hourly Data Report for December 04, 2018

EUREKA CLIMATE
NUNAVUT
Current Station Operator: ECCC - MSC

79°59'21.000" N
85°56'02.000" W
10.00 m
2401199
71613
NEK

Download Data

Hourly Data (December 2018)
Hourly Data Report for December 4, 2018
TIME
LST
Temp Definition
°C
Dew Point Definition
°C
Rel Hum Definition
%
Precip. Amount Definition
mm

Wind Dir Definition
10's deg

Wind Spd Definition
km/h
Visibility Definition
km
Stn Press Definition
kPa
Hmdx Definition


Wind Chill Definition


Weather Definition


00:00 -40.9 -45.1 64 0.0 11 5   101.86   -48 LegendNANA
01:00 -41.0 -45.2 64 0.0 12 5   101.89   -48 LegendNANA
02:00 -41.1 -45.3 64 0.0 0 1   101.90   -43 LegendNANA
03:00 -41.2 -45.5 63 0.0 12 2   101.88   -44 LegendNANA
04:00 -41.4 -45.7 63 0.2 12 6   101.88   -50 LegendNANA
05:00 -41.1 -45.4 64 0.0 11 5   101.87   -48 LegendNANA
06:00 -40.4 -44.5 65 0.0 9 1   101.85   -42 LegendNANA
07:00 -41.4 -45.7 63 0.0 12 4   101.83   -47 LegendNANA
08:00 -41.5 -45.8 63 0.0 12 3   101.80   -46 LegendNANA
09:00 -42.0 -46.3 63 0.0 12 5   101.78   -49 LegendNANA
10:00 -42.0 -46.4 63 0.0 11 3   101.75   -46 LegendNANA
11:00 -41.9 -46.3 63 0.0 12 5   101.74   -49 LegendNANA
12:00 -41.7 -46.0 63 0.0 12 4   101.72   -47 LegendNANA
13:00 -41.5 -45.8 63 0.0 11 3   101.69   -46 LegendNANA
14:00 -42.0 -46.3 63 0.0 12 3   101.66   -46 LegendNANA
15:00 -42.0 -46.4 63 0.0 10 6   101.64   -50 LegendNANA
16:00 -42.5 -46.9 62 0.0 11 2   101.63   -45 LegendNANA
17:00 -42.1 -46.5 62 0.0 11 5   101.62   -49 LegendNANA
18:00 -42.5 -46.9 62 0.0 0 1   101.60   -44 LegendNANA
19:00 -42.5 -46.9 62 0.0   0   101.57     LegendNANA
20:00 -42.4 -46.8 62 0.0 9 3   101.55   -47 LegendNANA
21:00 -42.3 -46.7 62 0.0 14 2   101.53   -45 LegendNANA
22:00 -42.4 -46.8 62 0.0 0 1   101.50   -44 LegendNANA
23:00 -42.5 -46.9 62 0.0 11 5   101.47   -50 LegendNANA

Notes on Data Quality.

Legend

  • E = Estimated
  • M = Missing
  • NA = Not Available*
  • [empty] = Indicates an unobserved value
Date modified: